loading
|

STARLINK-32081, 60348

Orbit data source: Space-Track

STARLINK-32081, 60348 is a payload satellite owned by SpaceX/Seattle (US) in LEO that was launched on Fri, 02 Aug 2024 UTC via an FALCON 9 launch vehicle from the Air Force Eastern Test Range (AFETR). Payloads include a variety of satellites, spacecraft, and rockets equipped with specific instruments for various scientific and technological missions. These include communications satellites like Starlink; space stations such as the ISS; scientific satellites like the Hubble; Earth observation satellites from companies like Planet Labs, Umbra, and HawkEye 360; GPS; miniature CubeSats for education and research; and military/defense satellites.

Loading next visibility...
Loading greatness...
STARLINK-32081 details
Identifier
60348, 2024-136V
Orbit
LEO
Last TLE update8 hours ago
Origin
Flag of USSpaceX/Seattle (US)
ManufacturerSpaceX/Seattle
Mission statusOperational
MissionUnknown
Bus & MotorSTARLINK V2M, Unknown motor
Mass750 kg wet, ~700 kg dry
Launch date (UTC)
2024-08-02 (2 months ago)
Launch vehicle
FALCON 9
Launch site
Air Force Eastern Test Range (AFETR)
Object type
Payload
Rocket body
Debris
Radar Cross SectionLarge (>1 m²)

Expand to show TLE details & history

TLE from 8 hours ago
0 STARLINK-32081
1 60348U 24136V   24261.58062796 -.00001146  00000-0 -18674-4 0  9999
2 60348  53.1631  55.3981 0000737  42.5500 317.5562 15.39630966  7279
Epoch: 2024-09-17T13:56Z
Definitive object data (Epoch: 2024-09-17T13:56:06.255Z)
Latitude-0.00003°
Longitude-150.62123°
Altitude447.732 km
Speed7.645 km/s
True Right ascension03h 41m 35s
True Declination0° 00' 00"
Sunlit
Object was in full shadow at TLE epoch
Predictive object data (real-time)
Latitude48.82885°
Longitude-30.65348°
Altitude452.551 km
Speed7.647 km/s
Apparent Right ascension07h 00m 35s
Apparent Declination14° 44' 58"
Sunlit
Object is in daylight
Predictive observer data (real-time)
Local Sidereal Time15:00:55
Azimuth301.177° NW
Elevation-12.03°
Doppler factor1
Orbital elements
Apogee447.96 km
Perigee446.954 km
Semi-major axis6,825.594 km
Eccentricity0.0000737
Inclination53.1631°
RAAN55.3981°
Arg. of periapsis42.55°
True anomaly317.5505°
Mean anomaly317.5562°
Eccentric anomaly317.55335°
Mean motion3.84886 °/min
BSTAR-0.000018674
Period93.53 mins
No data available

STARLINK-32081 Visibility forecast

Observer location: 39.9160978°, -105.1181434

STARLINK-32081 is not visible in the next 10 days
Span
Click to sort rows by Start time (UTC) header in descending order
Start Az.
Max El. time (UTC)
Max El. Az.
Max El.
End time (UTC)
End Az.